Flag for U.S.A. Weather past 2 weeks in Santa Rosa, California, U.S.A.

Now
81 °F

Passing clouds.


Feels Like: 80 °F
Forecast: 53 / 80 °F
Wind: 7 mph from Southeast

Location: Santa Rosa Sonoma County Airport

Current Time: Sep 3, 2015 at 3:36:06 PM

Latest Report: Sep 3, 2015 at 2:53 PM


Visibility: 10 mi

Pressure: 29.79 "Hg

Humidity: 33%

Dew point: 49 °F

Location of Santa RosaLocation

Historic Weather in Santa Rosa — Graph

°F

Santa Rosa temperature yesterday

Maximum temperature yesterday: 80 °F (at 1:53 PM)
Minimum temperature yesterday: 51 °F (at 5:53 AM)
Average temperature yesterday: 64 °F

Past Weeks' High & Low Weather Summary

 TemperatureHumidityPressure
High95 °F (Aug 27, 2:53 PM)100% (Aug 30, 7:53 AM)30.03 "Hg (Aug 30, 7:53 AM)
Low49 °F (Sep 3, 6:53 AM)14% (Aug 26, 4:53 PM)29.79 "Hg (Aug 31, 6:53 PM)
Average67 °F69%29.90 "Hg
* Reported Aug 19 12:53 PM — Sep 3 12:53 PM, Santa Rosa, Weather by CustomWeather, © 2015

Note: Actual official high and low records may vary slightly from our data, if they occured in-between our weather recording intervals... More about our weather records

Advertising

Santa Rosa weather history for previous 24 hours

 ConditionsComfort  
Time TempWeatherWind HumidityBarometerVisibility
12:53 PM
Thu, Sep 3
76 °FPassing clouds.3 mph40%29.83 "Hg10 mi
11:53 AM72 °FSunny.3 mph48%29.85 "Hg10 mi
10:53 AM70 °FSunny.3 mph51%29.87 "Hg10 mi
9:53 AM65 °FSunny.No wind61%29.88 "Hg10 mi
8:53 AM59 °FSunny.No wind81%29.88 "Hg10 mi
7:53 AM53 °FSunny.No wind93%29.88 "Hg10 mi
6:53 AM49 °FClear.No wind97%29.86 "Hg10 mi
5:53 AM50 °FClear.No wind93%29.85 "Hg10 mi
4:53 AM53 °FClear.No wind86%29.84 "Hg10 mi
3:53 AM54 °FClear.No wind90%29.84 "Hg10 mi
2:53 AM56 °FClear.No wind84%29.84 "Hg10 mi
1:53 AM56 °FClear.3 mph84%29.84 "Hg10 mi
12:53 AM57 °FClear.3 mph83%29.84 "Hg10 mi
11:53 PM
Wed, Sep 2
59 °FClear.3 mph81%29.84 "Hg10 mi
10:53 PM61 °FClear.No wind78%29.84 "Hg10 mi
9:53 PM62 °FClear.No wind78%29.84 "Hg10 mi
8:53 PM64 °FClear.3 mph75%29.83 "Hg10 mi
7:53 PM66 °FPassing clouds.3 mph70%29.81 "Hg10 mi
6:53 PM69 °FPassing clouds.9 mph66%29.80 "Hg10 mi
5:53 PM75 °FPassing clouds.12 mph54%29.81 "Hg10 mi
4:53 PM80 °FPassing clouds.10 mph44%29.81 "Hg10 mi
3:53 PM79 °FPassing clouds.9 mph45%29.82 "Hg10 mi
Weather by CustomWeather, © 2015

See weather overviewHow to use our weather pages